CW5619 Weather Reports


time (UTC)temp
C
wind
direction
speed
KPH
gust
KPH
rain 1hr
cm
rain 24hr
cm
rain mn
cm
humidity
%
barometer
mb
20260906203402 37 184 3.2 19.3 0.00 0.00 0.00 28 1012.0
20260906202903 37 219 4.8 19.3 0.00 0.00 0.00 28 1011.9
20260906202403 37 215 4.8 19.3 0.00 0.00 0.00 28 1011.9
20260906201904 37 237 6.4 19.3 0.00 0.00 0.00 27 1012.0
20260906201403 37 238 6.4 14.5 0.00 0.00 0.00 28 1012.1
20260906200903 37 197 6.4 19.3 0.00 0.00 0.00 28 1012.0
20260906195403 36 276 3.2 11.3 0.00 0.00 0.00 29 1012.4
20260906194903 37 276 4.8 11.3 0.00 0.00 0.00 28 1012.4
20260906194404 36 238 3.2 8.0 0.00 0.00 0.00 29 1012.5
20260906193903 37 166 3.2 11.3 0.00 0.00 0.00 29 1012.6
20260906193403 36 256 4.8 11.3 0.00 0.00 0.00 29 1012.7
20260906192903 36 265 3.2 12.9 0.00 0.00 0.00 30 1012.7
20260906192403 36 270 4.8 12.9 0.00 0.00 0.00 29 1012.7
20260906191903 36 274 3.2 19.3 0.00 0.00 0.00 29 1012.8
20260906191403 36 140 3.2 19.3 0.00 0.00 0.00 30 1012.8
20260906190903 36 225 8.0 19.3 0.00 0.00 0.00 30 1012.8
20260906185903 36 52 3.2 12.9 0.00 0.00 0.00 31 1013.0
20260906185403 36 204 3.2 9.7 0.00 0.00 0.00 32 1013.1
20260906184903 35 229 3.2 11.3 0.00 0.00 0.00 32 1013.1
20260906184403 35 191 4.8 11.3 0.00 0.00 0.00 32 1013.2
20260906183903 35 235 4.8 11.3 0.00 0.00 0.00 31 1013.3
20260906183403 35 317 3.2 8.0 0.00 0.00 0.00 32 1013.4
20260906182903 35 264 3.2 8.0 0.00 0.00 0.00 32 1013.5
20260906182404 35 220 3.2 12.9 0.00 0.00 0.00 31 1013.6
20260906181403 35 233 8.0 16.1 0.00 0.00 0.00 31 1013.6
20260906180904 34 242 8.0 12.9 0.00 0.00 0.00 33 1013.6
20260906175904 34 314 4.8 14.5 0.00 0.00 0.00 33 1013.7
20260906175403 34 288 1.6 12.9 0.00 0.00 0.00 33 1013.8
20260906174903 33 227 8.0 12.9 0.00 0.00 0.00 33 1013.8
20260906174403 33 203 3.2 12.9 0.00 0.00 0.00 34 1013.8
20260906173903 32 226 3.2 4.8 0.00 0.00 0.00 36 1013.9
20260906172403 31 30 1.6 4.8 0.00 0.00 0.00 38 1013.9
20260906171903 31 223 1.6 4.8 0.00 0.00 0.00 38 1013.8
20260906171403 31 236 1.6 4.8 0.00 0.00 0.00 40 1014.0
20260906170403 31 234 1.6 3.2 0.00 0.00 0.00 40 1013.9
20260906165904 31 285 0.0 3.2 0.00 0.00 0.00 41 1013.9
20260906165403 30 233 1.6 3.2 0.00 0.00 0.00 41 1013.9
20260906164903 30 190 0.0 3.2 0.00 0.00 0.00 41 1013.9
20260906163903 30 71 1.6 3.2 0.00 0.00 0.00 42 1014.0
20260906163403 30 198 0.0 3.2 0.00 0.00 0.00 43 1013.9
20260906162903 30 102 0.0 3.2 0.00 0.00 0.00 44 1014.0
20260906162403 29 73 0.0 4.8 0.00 0.00 0.00 44 1014.0
20260906161903 29 202 1.6 4.8 0.00 0.00 0.00 44 1014.0
20260906160903 29 147 1.6 4.8 0.00 0.00 0.00 45 1014.0
20260906160403 29 198 1.6 4.8 0.00 0.00 0.00 45 1014.1
20260906155903 28 131 0.0 1.6 0.00 0.00 0.00 46 1014.1
20260906155403 28 75 1.6 3.2 0.00 0.00 0.00 47 1014.1
20260906154903 28 74 0.0 3.2 0.00 0.00 0.00 47 1014.0
20260906154403 28 58 1.6 3.2 0.00 0.00 0.00 49 1014.0
20260906152903 28 129 1.6 3.2 0.00 0.00 0.00 49 1014.2
20260906152403 27 94 0.0 3.2 0.00 0.00 0.00 50 1014.2
20260906151903 27 107 0.0 3.2 0.00 0.00 0.00 50 1014.2
20260906151403 27 98 0.0 3.2 0.00 0.00 0.00 52 1014.1
20260906150904 27 93 0.0 3.2 0.00 0.00 0.00 51 1014.1
20260906150403 27 87 0.0 3.2 0.00 0.00 0.00 52 1014.1
20260906145904 27 100 0.0 3.2 0.00 0.00 0.00 54 1014.1
20260906144903 26 104 0.0 3.2 0.00 0.00 0.00 57 1014.2
20260906144403 26 104 0.0 3.2 0.00 0.00 0.00 58 1014.2
20260906143903 26 81 0.0 1.6 0.00 0.00 0.00 59 1014.1
20260906143404 26 80 0.0 1.6 0.00 0.00 0.00 61 1014.1
20260906142903 26 80 0.0 1.6 0.00 0.00 0.00 61 1013.9
20260906141903 26 80 0.0 0.0 0.00 0.00 0.00 60 1013.8
20260906141403 25 80 0.0 1.6 0.00 0.00 0.00 63 1013.9
20260906140903 25 80 0.0 1.6 0.00 0.00 0.00 62 1013.8
20260906140404 25 80 0.0 1.6 0.00 0.00 0.00 60 1013.8
20260906135403 25 80 0.0 1.6 0.00 0.00 0.00 60 1013.6
20260906134903 25 80 0.0 1.6 0.00 0.00 0.00 59 1013.7
20260906134403 25 80 0.0 1.6 0.00 0.00 0.00 59 1013.7
20260906133903 25 80 0.0 0.0 0.00 0.00 0.00 59 1013.7
20260906132904 25 80 0.0 1.6 0.00 0.00 0.00 59 1013.7
20260906132403 25 80 0.0 1.6 0.00 0.00 0.00 58 1013.8
20260906131403 25 80 0.0 1.6 0.00 0.00 0.00 57 1013.7
20260906130904 25 80 0.0 1.6 0.00 0.00 0.00 57 1013.6
20260906130403 25 80 0.0 3.2 0.00 0.00 0.00 57 1013.6
20260906125403 25 86 0.0 3.2 0.00 0.00 0.00 58 1013.6
20260906124903 25 92 0.0 3.2 0.00 0.00 0.00 58 1013.6
20260906123903 25 84 1.6 3.2 0.00 0.00 0.00 58 1013.4
20260906122903 25 31 0.0 1.6 0.00 0.00 0.00 56 1013.2
20260906122403 25 31 0.0 1.6 0.00 0.00 0.00 54 1013.2
20260906121903 26 31 0.0 0.0 0.00 0.00 0.00 53 1013.1
20260906121404 26 31 0.0 0.0 0.00 0.00 0.00 52 1013.1
20260906120403 26 31 0.0 1.6 0.00 0.00 0.00 53 1013.2
20260906115903 26 31 0.0 0.0 0.00 0.00 0.00 54 1013.0
20260906115404 25 31 0.0 0.0 0.00 0.00 0.00 54 1012.9
20260906114903 25 31 0.0 1.6 0.00 0.00 0.00 54 1013.0
20260906114404 25 31 0.0 1.6 0.00 0.00 0.00 54 1013.0
20260906113403 25 31 0.0 1.6 0.00 0.00 0.00 56 1013.1
20260906112403 25 31 0.0 3.2 0.00 0.00 0.00 56 1013.0
20260906111903 25 31 0.0 3.2 0.00 0.00 0.00 55 1013.0
20260906111403 26 5 0.0 1.6 0.00 0.00 0.00 53 1012.8
20260906110404 26 0 0.0 3.2 0.00 0.00 0.00 51 1012.7
20260906105903 26 0 0.0 3.2 0.00 0.00 0.00 52 1012.8
20260906105403 26 26 0.0 3.2 0.00 0.00 0.00 51 1012.7
20260906104903 26 341 0.0 3.2 0.00 0.00 0.00 52 1012.8
20260906104403 25 1 0.0 3.2 0.00 0.00 0.00 53 1012.8
20260906103903 25 39 0.0 3.2 0.00 0.00 0.00 54 1012.8
20260906103403 25 53 0.0 3.2 0.00 0.00 0.00 55 1012.7
20260906102403 25 46 0.0 1.6 0.00 0.00 0.00 54 1012.8
20260906101904 25 46 0.0 3.2 0.00 0.00 0.00 54 1012.7
20260906100903 25 50 0.0 1.6 0.00 0.00 0.00 55 1012.7
20260906100403 25 50 1.6 1.6 0.00 0.00 0.00 55 1012.7
20260906095403 25 50 0.0 1.6 0.00 0.00 0.00 54 1012.6
20260906094903 25 50 0.0 1.6 0.00 0.00 0.00 54 1012.6
20260906094403 25 50 0.0 1.6 0.00 0.00 0.00 54 1012.6
20260906093903 25 50 0.0 1.6 0.00 0.00 0.00 54 1012.7
20260906093403 25 50 0.0 0.0 0.00 0.00 0.00 53 1012.7
20260906092903 26 50 0.0 1.6 0.00 0.00 0.00 53 1012.7
20260906092404 26 50 0.0 1.6 0.00 0.00 0.00 52 1012.7
20260906091903 26 50 0.0 0.0 0.00 0.00 0.00 51 1012.7
20260906091404 26 50 0.0 0.0 0.00 0.00 0.00 50 1012.6
20260906090403 26 50 0.0 1.6 0.00 0.00 0.00 48 1012.6
20260906085903 26 50 0.0 3.2 0.00 0.00 0.00 48 1012.7
20260906084903 26 43 0.0 3.2 0.00 0.00 0.00 47 1012.7
20260906084403 26 43 0.0 3.2 0.00 0.00 0.00 47 1012.7
20260906083903 26 43 0.0 1.6 0.00 0.00 0.00 47 1012.7
20260906083403 27 43 0.0 1.6 0.00 0.00 0.00 45 1012.7
20260906082903 27 43 0.0 1.6 0.00 0.00 0.00 45 1012.7
20260906082404 27 43 0.0 3.2 0.00 0.00 0.00 45 1012.6
20260906081903 27 43 0.0 3.2 0.00 0.00 0.00 44 1012.7
20260906081404 27 54 0.0 1.6 0.00 0.00 0.00 44 1012.8
20260906080903 27 57 0.0 1.6 0.00 0.00 0.00 43 1012.8
20260906080403 27 57 0.0 0.0 0.00 0.00 0.00 43 1012.9
20260906075903 27 57 0.0 0.0 0.00 0.00 0.00 43 1012.9
20260906075404 27 57 0.0 0.0 0.00 0.00 0.00 43 1012.9
20260906074903 28 57 0.0 0.0 0.00 0.00 0.00 42 1013.0
20260906074404 28 57 0.0 0.0 0.00 0.00 0.00 43 1013.0
20260906073903 28 57 0.0 0.0 0.00 0.00 0.00 42 1013.0
20260906073403 28 57 0.0 1.6 0.00 0.00 0.00 42 1013.0
20260906072403 28 57 0.0 3.2 0.00 0.00 0.00 41 1013.1
20260906071903 28 38 0.0 3.2 0.00 0.00 0.00 41 1013.1
20260906071404 28 25 0.0 3.2 0.00 0.00 0.00 41 1013.2
20260906070903 28 25 0.0 4.8 0.00 0.00 0.00 41 1013.1
20260906065403 28 18 0.0 3.2 0.00 0.00 0.00 40 1013.2
20260906064904 29 36 0.0 4.8 0.00 0.00 0.00 40 1013.2
20260906064404 29 33 0.0 4.8 0.00 0.00 0.00 40 1013.2
20260906063903 29 52 1.6 4.8 0.00 0.00 0.00 41 1013.1
20260906063403 28 64 3.2 4.8 0.00 0.00 0.00 41 1013.1
20260906062403 28 26 1.6 4.8 0.00 0.00 0.00 44 1013.1
20260906061904 28 32 0.0 3.2 0.00 0.00 0.00 46 1013.1
20260906061404 28 247 0.0 0.0 0.00 0.00 0.00 46 1013.3
20260906060903 28 247 0.0 0.0 0.00 0.00 0.00 46 1013.2
20260906060404 28 247 0.0 0.0 0.00 0.00 0.00 47 1013.3
20260906055903 28 247 0.0 1.6 0.00 0.00 0.00 47 1013.3
20260906055403 28 247 0.0 1.6 0.00 0.00 0.00 46 1013.3
20260906054903 28 247 0.0 1.6 0.00 0.00 0.00 46 1013.4
20260906054403 29 247 0.0 0.0 0.00 0.00 0.00 45 1013.4
20260906053903 29 247 0.0 0.0 0.00 0.00 0.00 45 1013.4
20260906053403 29 247 0.0 1.6 0.00 0.00 0.00 44 1013.4
20260906052903 29 247 0.0 4.8 0.00 0.00 0.00 43 1013.4
20260906052403 29 248 1.6 4.8 0.00 0.00 0.00 44 1013.5
20260906051903 29 291 1.6 3.2 0.00 0.00 0.00 44 1013.5
20260906051403 29 33 0.0 1.6 0.00 0.00 0.00 45 1013.5
20260906050903 29 33 0.0 3.2 0.00 0.00 0.00 45 1013.5
20260906050403 29 33 0.0 4.8 0.00 0.00 0.00 45 1013.5
20260906045903 29 35 1.6 4.8 0.00 0.00 0.00 45 1013.5
20260906045403 30 72 1.6 3.2 0.00 0.00 0.00 44 1013.5
20260906044903 30 38 0.0 3.2 0.00 0.00 0.00 44 1013.4
20260906044403 30 38 0.0 3.2 0.00 0.00 0.00 44 1013.4
20260906043403 30 32 1.6 8.0 0.00 0.00 0.00 43 1013.3
20260906042903 30 24 1.6 8.0 0.00 0.00 0.00 43 1013.3
20260906042403 30 36 0.0 8.0 0.00 0.00 0.00 42 1013.3
20260906041903 30 36 1.6 4.8 0.00 0.00 0.00 42 1013.4
20260906041404 30 38 1.6 4.8 0.00 0.00 0.00 42 1013.3
20260906040903 31 34 0.0 4.8 0.00 0.00 0.00 41 1013.3
20260906040403 31 11 0.0 3.2 0.00 0.00 0.00 40 1013.2
20260906035903 31 38 1.6 3.2 0.00 0.00 0.00 39 1013.3
20260906035403 31 44 1.6 3.2 0.00 0.00 0.00 38 1013.2
20260906034903 31 41 1.6 3.2 0.00 0.00 0.00 38 1013.2
20260906034403 31 34 1.6 4.8 0.00 0.00 0.00 37 1013.2
20260906033903 31 21 1.6 4.8 0.00 0.00 0.00 38 1013.1
20260906033403 31 341 0.0 4.8 0.00 0.00 0.00 38 1013.1
20260906032904 32 0 1.6 4.8 0.00 0.00 0.00 37 1012.9
20260906032403 32 37 0.0 4.8 0.00 0.00 0.00 37 1012.9
20260906031904 32 31 1.6 3.2 0.00 0.00 0.00 37 1012.8
20260906031403 32 19 0.0 4.8 0.00 0.00 0.00 37 1012.7
20260906030903 32 35 0.0 4.8 0.00 0.00 0.00 37 1012.7
20260906025903 32 20 1.6 4.8 0.00 0.00 0.00 37 1012.6
20260906025403 32 21 1.6 4.8 0.00 0.00 0.00 37 1012.5
20260906024903 32 353 1.6 4.8 0.00 0.00 0.00 36 1012.4
20260906023904 32 355 3.2 9.7 0.00 0.00 0.00 36 1012.5
20260906023403 32 319 3.2 9.7 0.00 0.00 0.00 35 1012.4
20260906022903 33 352 3.2 12.9 0.00 0.00 0.00 35 1012.3
20260906022403 33 31 1.6 12.9 0.00 0.00 0.00 35 1012.2
20260906021903 33 0 3.2 8.0 0.00 0.00 0.00 35 1012.2
20260906021404 33 346 3.2 8.0 0.00 0.00 0.00 35 1012.2
20260906020903 33 328 1.6 4.8 0.00 0.00 0.00 34 1012.1
20260906020403 33 356 1.6 8.0 0.00 0.00 0.00 34 1012.1
20260906015903 33 354 1.6 9.7 0.00 0.00 0.00 33 1012.1
20260906015403 33 341 1.6 9.7 0.00 0.00 0.00 33 1012.1
20260906014903 33 324 3.2 9.7 0.00 0.00 0.00 33 1012.0
20260906014404 33 1 1.6 8.0 0.00 0.00 0.00 32 1012.1
20260906013903 33 357 1.6 9.7 0.00 0.00 0.00 32 1012.0
20260906013403 34 338 3.2 9.7 0.00 0.00 0.00 32 1012.0
20260906012903 34 327 3.2 9.7 0.00 0.00 0.00 32 1012.1
20260906012403 34 284 4.8 9.7 0.00 0.00 0.00 31 1012.0
20260906011904 35 284 1.6 8.0 0.00 0.00 0.00 31 1012.1
20260906011404 35 289 3.2 8.0 0.00 0.00 0.00 31 1012.0
20260906010903 35 235 3.2 14.5 0.00 0.00 0.00 31 1012.0
20260906005904 35 343 3.2 12.9 0.00 0.00 0.00 31 1012.1
20260906004904 35 227 3.2 9.7 0.00 0.00 0.00 31 1012.2
20260906004403 35 249 3.2 11.3 0.00 0.00 0.00 31 1012.2
20260906003903 35 183 3.2 11.3 0.00 0.00 0.00 30 1012.1
20260906003403 35 204 3.2 8.0 0.00 0.00 0.00 31 1012.2
20260906002904 35 215 3.2 9.7 0.00 0.00 0.00 31 1012.2
20260906002404 35 298 4.8 9.7 0.00 0.00 0.00 30 1012.0
20260906001904 35 323 3.2 14.5 0.00 0.00 0.00 31 1012.2
20260906001403 35 214 3.2 16.1 0.00 0.00 0.00 31 1012.2
20260906000903 36 248 4.8 16.1 0.00 0.00 0.00 31 1012.0
20260906000404 36 235 4.8 9.7 0.00 0.00 0.00 30 1012.2
20260905235903 36 230 3.2 11.3 0.00 0.00 0.00 30 1012.1
20260905234903 36 220 3.2 12.9 0.00 0.00 0.00 30 1012.1
20260905234403 36 232 4.8 12.9 0.00 0.00 0.00 30 1012.0
20260905233904 36 272 6.4 12.9 0.00 0.00 0.00 30 1012.1
20260905233404 36 185 4.8 12.9 0.00 0.00 0.00 30 1012.1
20260905232904 36 0 4.8 11.3 0.00 0.00 0.00 30 1012.1
20260905231904 37 243 3.2 16.1 0.00 0.00 0.00 29 1012.1
20260905231403 37 213 8.0 16.1 0.00 0.00 0.00 29 1012.1
20260905230903 37 226 3.2 16.1 0.00 0.00 0.00 29 1012.2
20260905225903 37 247 4.8 14.5 0.00 0.00 0.00 29 1012.2
20260905224403 37 174 4.8 12.9 0.00 0.00 0.00 29 1012.3
20260905223904 37 228 4.8 12.9 0.00 0.00 0.00 29 1012.4
20260905223405 37 136 3.2 11.3 0.00 0.00 0.00 29 1012.4
20260905222903 37 201 4.8 11.3 0.00 0.00 0.00 29 1012.4
20260905222403 37 322 3.2 12.9 0.00 0.00 0.00 29 1012.5
20260905221903 37 227 3.2 12.9 0.00 0.00 0.00 29 1012.6
20260905221404 37 225 4.8 16.1 0.00 0.00 0.00 28 1012.7
20260905220903 37 235 8.0 16.1 0.00 0.00 0.00 28 1012.7
20260905220403 37 219 3.2 11.3 0.00 0.00 0.00 28 1012.7
20260905215903 37 212 3.2 11.3 0.00 0.00 0.00 28 1012.9
20260905215404 37 53 3.2 11.3 0.00 0.00 0.00 27 1012.8
20260905214903 37 208 8.0 11.3 0.00 0.00 0.00 28 1013.0
20260905213903 37 221 4.8 12.9 0.00 0.00 0.00 28 1013.2
20260905213404 37 212 4.8 11.3 0.00 0.00 0.00 27 1013.1
20260905212903 37 303 3.2 12.9 0.00 0.00 0.00 28 1013.2
20260905212403 37 321 4.8 14.5 0.00 0.00 0.00 29 1013.2
20260905211903 37 225 4.8 14.5 0.00 0.00 0.00 29 1013.2
20260905211403 37 266 3.2 11.3 0.00 0.00 0.00 29 1013.2
20260905210903 37 248 4.8 11.3 0.00 0.00 0.00 29 1013.4
20260905210403 37 226 3.2 14.5 0.00 0.00 0.00 29 1013.5
20260905205903 37 219 3.2 14.5 0.00 0.00 0.00 28 1013.6
20260905205404 37 274 4.8 14.5 0.00 0.00 0.00 29 1013.6
20260905204904 37 246 3.2 11.3 0.00 0.00 0.00 30 1013.6
20260905203903 37 242 3.2 12.9 0.00 0.00 0.00 30 1013.9